Hourly Weather Rudka

Today, 2 August, Monday

Time Temperature Precipitation Wind Pressure Humidity
00:00 +25°C° 0 mm 3 mps 748 mmHg 65%
01:00 +25°C° 0 mm 3 mps 748 mmHg 69%
02:00 +24°C° 0 mm 3 mps 747 mmHg 72%
03:00 +24°C° 0 mm 3 mps 747 mmHg 76%
04:00 +22°C° 0 mm 3 mps 747 mmHg 79%
05:00 +22°C° 0 mm 3 mps 747 mmHg 83%
06:00 +25°C° 0 mm 4 mps 747 mmHg 75%
07:00 +27°C° 0 mm 4 mps 747 mmHg 67%
08:00 +29°C° 0 mm 5 mps 747 mmHg 61%
09:00 +30°C° 0 mm 6 mps 747 mmHg 55%
10:00 +33°C° 0 mm 6 mps 747 mmHg 49%
11:00 +35°C° 0 mm 6 mps 746 mmHg 43%
12:00 +35°C° 0 mm 7 mps 746 mmHg 41%
13:00 +36°C° 0 mm 7 mps 746 mmHg 40%
14:00 +35°C° 0 mm 7 mps 746 mmHg 41%
15:00 +35°C° 0.1 mm 6 mps 746 mmHg 42%
16:00 +34°C° 0.1 mm 6 mps 746 mmHg 43%
17:00 +34°C° 0.1 mm 6 mps 746 mmHg 44%
18:00 +30°C° 0.2 mm 5 mps 746 mmHg 51%
19:00 +28°C° 0.2 mm 4 mps 747 mmHg 58%
20:00 +25°C° 0.2 mm 3 mps 747 mmHg 65%
21:00 +24°C° 0 mm 3 mps 748 mmHg 68%
22:00 +22°C° 0 mm 3 mps 749 mmHg 72%
23:00 +21°C° 0 mm 3 mps 749 mmHg 75%

Tomorrow, 3 August, Tuesday

Time Temperature Precipitation Wind Pressure Humidity
00:00 +20°C° 0 mm 3 mps 749 mmHg 79%
01:00 +19°C° 0 mm 3 mps 749 mmHg 82%
02:00 +18°C° 0 mm 3 mps 749 mmHg 86%
03:00 +18°C° 0 mm 3 mps 750 mmHg 88%
04:00 +17°C° 0 mm 3 mps 750 mmHg 89%
05:00 +17°C° 0 mm 2 mps 750 mmHg 91%
06:00 +18°C° 0 mm 2 mps 751 mmHg 82%
07:00 +20°C° 0 mm 3 mps 751 mmHg 72%
08:00 +21°C° 0 mm 3 mps 751 mmHg 63%
09:00 +24°C° 0 mm 3 mps 751 mmHg 58%
10:00 +25°C° 0 mm 3 mps 751 mmHg 53%
11:00 +26°C° 0 mm 3 mps 752 mmHg 48%
12:00 +27°C° 0 mm 3 mps 751 mmHg 45%
13:00 +28°C° 0 mm 3 mps 751 mmHg 42%
14:00 +28°C° 0 mm 3 mps 751 mmHg 39%
15:00 +28°C° 0 mm 3 mps 751 mmHg 41%
16:00 +27°C° 0 mm 3 mps 751 mmHg 43%
17:00 +26°C° 0 mm 3 mps 751 mmHg 45%
18:00 +26°C° 0 mm 3 mps 751 mmHg 46%
19:00 +25°C° 0 mm 3 mps 751 mmHg 47%
20:00 +24°C° 0 mm 3 mps 752 mmHg 48%
21:00 +24°C° 0 mm 2 mps 752 mmHg 49%
22:00 +23°C° 0 mm 2 mps 752 mmHg 51%
23:00 +21°C° 0 mm 2 mps 753 mmHg 52%

Day after tomorrow, 4 August, Wednesday

Time Temperature Precipitation Wind Pressure Humidity
00:00 +21°C° 0 mm 2 mps 753 mmHg 53%
01:00 +20°C° 0 mm 2 mps 753 mmHg 54%
02:00 +20°C° 0 mm 2 mps 753 mmHg 55%
03:00 +20°C° 0 mm 1 mps 753 mmHg 57%
04:00 +20°C° 0 mm 1 mps 753 mmHg 60%
05:00 +19°C° 0 mm 1 mps 753 mmHg 63%
06:00 +21°C° 0 mm 1 mps 754 mmHg 58%
07:00 +23°C° 0 mm 1 mps 754 mmHg 53%
08:00 +25°C° 0 mm 1 mps 754 mmHg 48%
09:00 +26°C° 0 mm 1 mps 754 mmHg 44%
10:00 +27°C° 0 mm 1 mps 754 mmHg 40%
11:00 +28°C° 0 mm 2 mps 754 mmHg 36%
12:00 +29°C° 0 mm 2 mps 754 mmHg 35%
13:00 +29°C° 0 mm 2 mps 754 mmHg 33%
14:00 +30°C° 0 mm 2 mps 753 mmHg 32%
15:00 +29°C° 0 mm 2 mps 753 mmHg 34%
16:00 +29°C° 0 mm 2 mps 753 mmHg 36%
17:00 +28°C° 0 mm 2 mps 753 mmHg 38%
18:00 +27°C° 0 mm 2 mps 753 mmHg 41%
19:00 +25°C° 0 mm 1 mps 753 mmHg 45%
20:00 +23°C° 0 mm 1 mps 753 mmHg 48%
21:00 +23°C° 0 mm 1 mps 753 mmHg 48%
22:00 +21°C° 0 mm 2 mps 753 mmHg 49%
23:00 +21°C° 0 mm 2 mps 753 mmHg 49%

5 August, Thursday

Time Temperature Precipitation Wind Pressure Humidity
00:00 +21°C° 0 mm 2 mps 753 mmHg 50%
01:00 +20°C° 0 mm 2 mps 753 mmHg 52%
02:00 +20°C° 0 mm 3 mps 753 mmHg 53%
03:00 +20°C° 0 mm 3 mps 753 mmHg 54%
04:00 +20°C° 0 mm 3 mps 753 mmHg 55%
05:00 +19°C° 0 mm 3 mps 753 mmHg 56%
06:00 +21°C° 0 mm 3 mps 752 mmHg 53%
07:00 +23°C° 0 mm 4 mps 752 mmHg 49%
08:00 +26°C° 0 mm 4 mps 752 mmHg 45%
09:00 +27°C° 0 mm 4 mps 752 mmHg 42%
10:00 +29°C° 0 mm 5 mps 752 mmHg 39%
11:00 +30°C° 0 mm 5 mps 752 mmHg 36%
12:00 +30°C° 0 mm 5 mps 751 mmHg 35%
13:00 +32°C° 0 mm 5 mps 751 mmHg 35%
14:00 +32°C° 0 mm 5 mps 751 mmHg 35%
15:00 +32°C° 0 mm 5 mps 750 mmHg 36%
16:00 +33°C° 0 mm 5 mps 750 mmHg 36%
17:00 +33°C° 0 mm 5 mps 750 mmHg 37%
18:00 +30°C° 0.1 mm 5 mps 750 mmHg 44%
19:00 +27°C° 0.1 mm 4 mps 749 mmHg 51%
20:00 +25°C° 0.1 mm 3 mps 749 mmHg 58%
21:00 +25°C° 0 mm 4 mps 749 mmHg 58%
22:00 +23°C° 0 mm 4 mps 749 mmHg 58%
23:00 +23°C° 0 mm 4 mps 749 mmHg 58%

6 August, Friday

Time Temperature Precipitation Wind Pressure Humidity
00:00 +23°C° 0 mm 4 mps 749 mmHg 58%
01:00 +22°C° 0 mm 4 mps 749 mmHg 58%
02:00 +22°C° 0 mm 4 mps 749 mmHg 57%
03:00 +22°C° 0 mm 4 mps 748 mmHg 60%
04:00 +21°C° 0 mm 3 mps 748 mmHg 63%
05:00 +21°C° 0 mm 3 mps 748 mmHg 66%
06:00 +23°C° 0 mm 4 mps 748 mmHg 61%
07:00 +26°C° 0 mm 4 mps 748 mmHg 56%
08:00 +28°C° 0 mm 5 mps 748 mmHg 50%
09:00 +30°C° 0 mm 5 mps 748 mmHg 45%
10:00 +33°C° 0 mm 5 mps 748 mmHg 39%
11:00 +34°C° 0 mm 6 mps 748 mmHg 33%
12:00 +35°C° 0 mm 6 mps 747 mmHg 30%
13:00 +36°C° 0 mm 5 mps 747 mmHg 28%
14:00 +37°C° 0 mm 5 mps 746 mmHg 25%
15:00 +36°C° 0 mm 5 mps 746 mmHg 25%
16:00 +36°C° 0 mm 4 mps 746 mmHg 25%
17:00 +36°C° 0 mm 4 mps 745 mmHg 26%
18:00 +34°C° 0 mm 4 mps 745 mmHg 30%
19:00 +30°C° 0 mm 3 mps 745 mmHg 34%
20:00 +28°C° 0 mm 2 mps 745 mmHg 38%
21:00 +26°C° 0.1 mm 3 mps 746 mmHg 52%
22:00 +24°C° 0.1 mm 3 mps 746 mmHg 66%
23:00 +21°C° 0.1 mm 3 mps 746 mmHg 80%

7 August, Saturday

Time Temperature Precipitation Wind Pressure Humidity
00:00 +20°C° 0.1 mm 3 mps 746 mmHg 81%
01:00 +20°C° 0.1 mm 2 mps 746 mmHg 82%
02:00 +20°C° 0.1 mm 2 mps 746 mmHg 84%
03:00 +19°C° 0.5 mm 2 mps 746 mmHg 86%
04:00 +19°C° 0.5 mm 2 mps 746 mmHg 89%
05:00 +19°C° 0.5 mm 2 mps 746 mmHg 92%
06:00 +20°C° 0.5 mm 2 mps 747 mmHg 88%
07:00 +21°C° 0.5 mm 2 mps 747 mmHg 83%
08:00 +24°C° 0.5 mm 2 mps 747 mmHg 79%
09:00 +25°C° 0.1 mm 3 mps 747 mmHg 74%
10:00 +26°C° 0.1 mm 3 mps 748 mmHg 68%
11:00 +27°C° 0.1 mm 4 mps 748 mmHg 62%
12:00 +28°C° 0 mm 4 mps 748 mmHg 60%
13:00 +29°C° 0 mm 4 mps 748 mmHg 57%
14:00 +30°C° 0 mm 4 mps 748 mmHg 54%
15:00 +29°C° 0.1 mm 4 mps 748 mmHg 57%
16:00 +29°C° 0.1 mm 3 mps 748 mmHg 60%
17:00 +28°C° 0.1 mm 3 mps 748 mmHg 62%
18:00 +27°C° 0.2 mm 4 mps 748 mmHg 68%
19:00 +25°C° 0.2 mm 4 mps 749 mmHg 74%
20:00 +23°C° 0.2 mm 4 mps 749 mmHg 80%
21:00 +22°C° 0.4 mm 5 mps 749 mmHg 83%
22:00 +21°C° 0.4 mm 5 mps 750 mmHg 87%
23:00 +21°C° 0.4 mm 5 mps 750 mmHg 90%
Show more

We Need Your Consent

Meteoprog and our Service Providers may store and access personal data such as cookies, device identifiers or other similar technologies on your device and process such data to personalise content and ads, as well as provide social media features and to analyse the traffic.

  • Store and/or access information on your device

    Cookies, device identifiers or other information can be stored or accessed on your device for the purposes indicated above.

  • Personalised ads and content, ad and content measurement, audience insights, and products development

    Ads and content can be personalised based on a profile. More data can be added to better personalise ads and content. Ad and content performance can be measured. Insights about the audience who saw the ads and content can be derived. Such data can be used to develop or improve user’s experience, systems and software.

By clicking ‘I Agree’ you will allow the use of indicated cookies, device identifiers, web beacons or other similar technologies. Your settings can be changed in the browser on your device.

For certain purposes, legitimate interests may be relied on, rather than consent. You can read more about this in our Privacy and Cookie Policy.